Location: Arena
(42.5007°N, 9.4650°E)
Time: 15:35:41
(UTC+00:00)

GRACE-FO 1 - Pass Details

Date: 09 April 2020
Orbit: 483 x 504 km, 89.0° (Epoch: 05 June)

Event Time Altitude Azimuth Distance (km) Brightness Sun altitude
Exits shadow 19:52:24 70° 109° (ESE) 536 4.5 -20.4°
Maximum altitude 19:52:33 71° 87° (E) 532 4.5 -20.4°
Drops below altitude 10° 19:56:15 10° 4° (N) 1,710 7.7 -20.9°
Sets 19:58:22 0° 2° (N) 2,595 8.7 -21.3°
